Regional Weather Roundup
Issued by NWS

Home | Current Version | Previous Version | Graphics & Text | Print | Product List | Glossary Off
Versions: 1 2 3 4 5 6 7 8 9 10 11 12 13 14 15 16 17 18 19 20 21 22 23 24 25 26 27 28 29 30 31 32 33 34 35 36 37 38 39 40 41 42 43 44 45 46 47 48 49 50

000
ASUS43 KMKX 312100
RWRWI

WISCONSIN REGIONAL WEATHER ROUNDUP
NATIONAL WEATHER SERVICE MILWAUKEE/SULLIVAN WI
400 PM CDT MON AUG 31 2015

NOTE: "FAIR" INDICATES FEW OR NO CLOUDS BELOW 12,000 FEET WITH NO
SIGNIFICANT WEATHER AND/OR OBSTRUCTIONS TO VISIBILITY.

WIZ001-002-006>008-014>016-023>028-312200-
NORTHWEST WISCONSIN

CITY           SKY/WX    TMP DP  RH WIND       PRES   REMARKS
SUPERIOR ARPT  FAIR      83  70  64 SW13G21   29.82F HX  87
ASHLAND        FAIR      80  68  66 S13G24    29.87F HX  83
HAYWARD        FAIR      78  67  68 S17G25    29.93F HX  80
SIREN          FAIR      81  67  62 SW16G24   29.90F HX  84
CUMBERLAND     PTSUNNY   77  68  73 S10G20    29.94S
RICE LAKE      PTSUNNY   78  69  73 S10       29.95F HX  80
CHETEK         PTSUNNY  N/A N/A N/A S9        29.95F
LADYSMITH      FAIR      77  68  73 S12G17    29.99F
EAU CLAIRE     NOT AVBL
MENOMONIE      FAIR      83  71  66 S12G18    29.93F HX  87
NEW RICHMOND   FAIR      82  68  63 SW20G25   29.92S HX  84
OSCEOLA        FAIR      83  70  64 S10G18    29.93S HX  86
$$

WIZ003>005-009-010-017-018-312200-
NORTH CENTRAL WISCONSIN

CITY           SKY/WX    TMP DP  RH WIND       PRES   REMARKS
MANITOWISH WTR FAIR      80  65  61 S8        29.95F HX  82
ARBOR VITAE    FAIR      81  67  62 SW12      29.97F HX  83
WOODRUFF       FAIR      81  67  62 SW12      29.97F HX  83
RHINELANDER    FAIR      79  65  62 SW13      30.00S HX  81
EAGLE RIVER    FAIR      80  61  53 SW7       29.97S HX  81
LAND O LAKES   FAIR      82  60  46 SW7       29.97S HX  83
PHILLIPS       FAIR      75  66  74 SW12G18   29.98S
TOMAHAWK       FAIR      78  66  66 SW6       30.00S HX  80
MEDFORD        CLOUDY    71  68  88 S8        30.02S
MERRILL        FAIR      77  68  74 SW8       30.00S
$$

WIZ029-030-035-036-043>047-312200-
CENTRAL WISCONSIN

CITY           SKY/WX    TMP DP  RH WIND       PRES   REMARKS
WAUSAU         FAIR      77  66  68 SW8       29.99F
MOSINEE        NOT AVBL
MARSHFIELD     PTSUNNY   79  68  69 S9        30.00F HX  81
STEVENS POINT  PTSUNNY   78  66  68 SW9       30.01S
WAUPACA        FAIR      82  68  61 S7        30.00F HX  85
WAUTOMA        NOT AVBL
WISC RAPIDS    FAIR      80  67  64 SW12      30.01F HX  82
CAMP DOUGLAS   NOT AVBL
$$

WIZ011>013-019>022-031-037>040-048>050-312200-
NORTHEAST WISCONSIN

CITY           SKY/WX    TMP DP  RH WIND       PRES   REMARKS
ANTIGO         FAIR      75  66  73 SW7       30.02F HAZE
SHAWANO        PTSUNNY   79  68  68 SW6       29.99F HX  81
OCONTO         FAIR      78  68  71 SW9       29.98S HX  80
STURGEON BAY   FAIR      77  66  69 S8        30.00F
GREEN BAY      FAIR      78  69  73 SW10      29.99F HX  80
MANITOWOC      NOT AVBL
APPLETON       MOSUNNY   79  66  65 S9        29.99F HX  81
CLINTONVILLE   FAIR      79  66  65 SW6       29.99F HX  81
OSHKOSH        FAIR      79  68  69 S12       30.00F HX  81
$$

WIZ032>034-041-042-053>061-312200-
SOUTHWEST WISCONSIN

CITY           SKY/WX    TMP DP  RH WIND       PRES   REMARKS
LA CROSSE      FAIR      85  70  60 S12       29.96S HX  89
SPARTA         PTSUNNY   82  66  57 S9        29.99F HX  84
VIROQUA          N/A     82  69  64 S7        30.01F HX  85
BOSCOBEL       FAIR      86  68  54 S9        29.99F HX  89
PRAIRIE DU CHI FAIR      84  67  55 SE6       29.98S HX  87
PLATTEVILLE    FAIR      82  70  68 S9        30.01F HX  85
$$

WIZ056-057-062-063-064-067-068-312200-
SOUTH CENTRAL WISCONSIN

CITY           SKY/WX    TMP DP  RH WIND       PRES   REMARKS
REEDSBURG      PTSUNNY   82  69  64 S8        30.00F HX  86
BARABOO/DELLS  PTSUNNY   82  65  55 SW9       30.01F HX  84
LONE ROCK      NOT AVBL
MINERAL POINT  FAIR      82  68  61 S10       30.02F HX  85
MADISON        FAIR      82  67  60 S10       30.00F HX  84
MIDDLETON      FAIR      84  65  52 SW9       30.02F HX  86
WATERTOWN      FAIR      81  68  64 SW8       30.02F HX  84
MONROE         PTSUNNY   81  68  65 S7        30.03F HX  83
JANESVILLE     MOSUNNY   84  66  54 S7        30.02F HX  86
$$

WIZ051-052-058>065-066-070>072-312200-
SOUTHEAST WISCONSIN

CITY           SKY/WX    TMP DP  RH WIND       PRES   REMARKS
MILWAUKEE      PTSUNNY   76  66  71 SE13      30.02F
WAUKESHA       MOSUNNY   79  66  65 SW6       30.04F HX  81
MILWAUKEE/TIMM SUNNY     81  64  57 S7        30.03  HX  82
RACINE         FAIR      76  66  71 S9        30.04F
BURLINGTON     FAIR      81  66  60 SW5       30.03F HX  83
KENOSHA        FAIR      80  69  69 E10       30.03F HX  83
FOND DU LAC    FAIR      79  68  69 S8        30.01F HX  81
SHEBOYGAN      FAIR      78  68  71 MISG      30.01F HX  80
WEST BEND      FAIR      79  64  61 S7        30.03F HX  81
JUNEAU         FAIR      79  68  69 S7        30.04F HX  81
$$

LSZ147-162-312200-
LAKE SUPERIOR

STATION/POSITION TIME  TEMP    WIND        PRES    WAVE
                       AIR SEA DIR/SP/G            HT/PER
                 (UTC) (F)     (DEG/KT/KT) (MB)    (FT/S)
W MID LAKE BUOY  1950   63 57  160/  4/  6 1011.0F   1
DEVILS ISLAND    2000   68      10/  4/  5 1010.8F
PORT WING        2000   81     190/ 12/ 19 1010.5F
SAXON HARBOR     2040   82     210/  9/ 17 1010.8F
$$

LMZ867-665-643>646-312200-
LAKE MICHIGAN

STATION/POSITION TIME  TEMP    WIND        PRES    WAVE
                       AIR SEA DIR/SP/G            HT/PER
                 (UTC) (F)     (DEG/KT/KT) (MB)    (FT/S)
CHAMBERS ISLAND  2000   72     180/  7/ 14 1015.2F
N MID LAKE BUOY  1950   64 65  210/ 16/ 17 1015.3F   2/ 4
NORTHPORT PIER   2000   67     140/  8/ 11 1014.9F
KEWAUNEE LAKESHO 2000   57     180/ 12/ 14 1015.2F
SHEBOYGAN LAKESH 2000   67     180/ 17/ 18 1016.8F
PORT WASHINGTON  2000   67     180/  7/ 10 1017.6
ATWATER BUOY     2000   59 51  170/  6/  8 1018.3F
MILWAUKEE LAKESH 2010   62     130/  6/  8   N/A
S MID LAKE BUOY  1950   70 72  170/  8/  8 1017.3F   0
KENOSHA   LAKESH 2000   68     180/  8/ 11 1016.9F
$$

TC  - TEMPERATURE IN CELSIUS
VSB - VISIBILITY IN STATUTE MILES
WCI - WIND CHILL INDEX
HX  - HEAT INDEX



USA.gov is the U.S. government's official web portal to all federal, state and local government web resources and services.